When you browse on this site, cookies collect data to enhance your experience and personalize the content and advertising you see.
Visit our Privacy Policy to learn more. By continuing to use the site, you agree to this use of cookies and data.
  • în România
  • Lista ţărilor
  • Pe 7 zile
  • Temperatura apei
  • Meteo pe hartă
  • Widget-uri
  • user-avatar
    Intrare

    Meteo pe oră la Belém

    Astăzi, 25 Februarie, Marţi

    Timp Temperatura Precipitaţii Vânt Presiune Umiditate
    00:00 +26°C° 0.7 mm 2 m/s 758 mmHg 97%
    01:00 +26°C° 0.3 mm 2 m/s 757 mmHg 97%
    02:00 +26°C° 0.3 mm 2 m/s 757 mmHg 97%
    03:00 +26°C° 0.3 mm 2 m/s 756 mmHg 97%
    04:00 +26°C° 0.2 mm 2 m/s 756 mmHg 97%
    05:00 +26°C° 0.2 mm 1 m/s 757 mmHg 97%
    06:00 +26°C° 0.2 mm 1 m/s 757 mmHg 97%
    07:00 +27°C° 0.1 mm 1 m/s 757 mmHg 93%
    08:00 +28°C° 0.1 mm 2 m/s 758 mmHg 89%
    09:00 +29°C° 0.1 mm 2 m/s 758 mmHg 86%
    10:00 +30°C° 0.2 mm 2 m/s 758 mmHg 80%
    11:00 +31°C° 0.2 mm 2 m/s 757 mmHg 74%
    12:00 +33°C° 0.2 mm 3 m/s 757 mmHg 68%
    13:00 +33°C° 0.9 mm 3 m/s 757 mmHg 74%
    14:00 +31°C° 0.9 mm 3 m/s 756 mmHg 81%
    15:00 +30°C° 0.9 mm 4 m/s 755 mmHg 88%
    16:00 +29°C° 0.9 mm 4 m/s 755 mmHg 89%
    17:00 +29°C° 0.9 mm 4 m/s 755 mmHg 90%
    18:00 +28°C° 0.9 mm 4 m/s 755 mmHg 91%
    19:00 +27°C° 2.1 mm 3 m/s 756 mmHg 92%
    20:00 +27°C° 2.1 mm 3 m/s 756 mmHg 94%
    21:00 +27°C° 2.1 mm 3 m/s 757 mmHg 96%
    22:00 +26°C° 2.7 mm 3 m/s 757 mmHg 96%
    23:00 +26°C° 2.7 mm 3 m/s 757 mmHg 97%

    Mâine, 26 Februarie, Miercuri

    Timp Temperatura Precipitaţii Vânt Presiune Umiditate
    00:00 +26°C° 2.7 mm 3 m/s 757 mmHg 97%
    01:00 +26°C° 2.6 mm 3 m/s 757 mmHg 97%
    02:00 +26°C° 2.6 mm 3 m/s 756 mmHg 97%
    03:00 +26°C° 2.6 mm 3 m/s 756 mmHg 97%
    04:00 +26°C° 1.1 mm 2 m/s 756 mmHg 97%
    05:00 +26°C° 1.1 mm 2 m/s 756 mmHg 97%
    06:00 +26°C° 1.1 mm 2 m/s 756 mmHg 97%
    07:00 +27°C° 1.2 mm 2 m/s 756 mmHg 96%
    08:00 +27°C° 1.2 mm 2 m/s 757 mmHg 95%
    09:00 +28°C° 1.2 mm 2 m/s 758 mmHg 94%
    10:00 +28°C° 1.8 mm 2 m/s 758 mmHg 93%
    11:00 +29°C° 1.8 mm 2 m/s 758 mmHg 92%
    12:00 +29°C° 1.8 mm 2 m/s 757 mmHg 92%
    13:00 +29°C° 1.4 mm 3 m/s 757 mmHg 92%
    14:00 +29°C° 1.4 mm 3 m/s 756 mmHg 93%
    15:00 +28°C° 1.4 mm 3 m/s 756 mmHg 94%
    16:00 +28°C° 1.4 mm 3 m/s 756 mmHg 95%
    17:00 +27°C° 1.4 mm 3 m/s 756 mmHg 96%
    18:00 +26°C° 1.4 mm 3 m/s 756 mmHg 97%
    19:00 +26°C° 1.5 mm 3 m/s 756 mmHg 97%
    20:00 +26°C° 1.5 mm 3 m/s 757 mmHg 97%
    21:00 +26°C° 1.5 mm 3 m/s 758 mmHg 97%
    22:00 +26°C° 0.8 mm 3 m/s 758 mmHg 97%
    23:00 +26°C° 0.8 mm 2 m/s 758 mmHg 97%

    Poimâine, 27 Februarie, Joi

    Timp Temperatura Precipitaţii Vânt Presiune Umiditate
    00:00 +26°C° 0.8 mm 2 m/s 758 mmHg 97%
    01:00 +26°C° 0.1 mm 2 m/s 757 mmHg 97%
    02:00 +26°C° 0.1 mm 2 m/s 757 mmHg 97%
    03:00 +26°C° 0.1 mm 2 m/s 756 mmHg 97%
    04:00 +25°C° 0 mm 2 m/s 756 mmHg 96%
    05:00 +25°C° 0 mm 2 m/s 756 mmHg 96%
    06:00 +25°C° 0 mm 2 m/s 757 mmHg 96%
    07:00 +26°C° 0 mm 2 m/s 757 mmHg 93%
    08:00 +27°C° 0 mm 2 m/s 758 mmHg 90%
    09:00 +28°C° 0 mm 2 m/s 758 mmHg 87%
    10:00 +29°C° 0 mm 2 m/s 758 mmHg 81%
    11:00 +30°C° 0 mm 2 m/s 758 mmHg 75%
    12:00 +31°C° 0 mm 2 m/s 758 mmHg 69%
    13:00 +31°C° 0.5 mm 3 m/s 757 mmHg 72%
    14:00 +31°C° 0.5 mm 3 m/s 756 mmHg 74%
    15:00 +31°C° 0.5 mm 3 m/s 756 mmHg 77%
    16:00 +30°C° 0.9 mm 3 m/s 756 mmHg 82%
    17:00 +28°C° 0.9 mm 4 m/s 756 mmHg 87%
    18:00 +27°C° 0.9 mm 4 m/s 756 mmHg 91%
    19:00 +27°C° 0 mm 4 m/s 757 mmHg 92%
    20:00 +27°C° 0 mm 4 m/s 757 mmHg 92%
    21:00 +26°C° 0 mm 3 m/s 758 mmHg 92%
    22:00 +26°C° 0.1 mm 3 m/s 758 mmHg 92%
    23:00 +26°C° 0.1 mm 3 m/s 758 mmHg 92%

    28 Februarie, Vineri

    Timp Temperatura Precipitaţii Vânt Presiune Umiditate
    00:00 +26°C° 0.1 mm 3 m/s 758 mmHg 92%
    01:00 +26°C° 0.1 mm 3 m/s 758 mmHg 92%
    02:00 +26°C° 0.1 mm 3 m/s 757 mmHg 92%
    03:00 +26°C° 0.1 mm 3 m/s 757 mmHg 92%
    04:00 +26°C° 0 mm 3 m/s 757 mmHg 93%
    05:00 +26°C° 0 mm 2 m/s 757 mmHg 93%
    06:00 +26°C° 0 mm 2 m/s 757 mmHg 94%
    07:00 +27°C° 0 mm 2 m/s 758 mmHg 89%
    08:00 +28°C° 0 mm 3 m/s 758 mmHg 84%
    09:00 +29°C° 0 mm 3 m/s 759 mmHg 80%
    10:00 +30°C° 0.1 mm 2 m/s 759 mmHg 77%
    11:00 +31°C° 0.1 mm 2 m/s 758 mmHg 74%
    12:00 +31°C° 0.1 mm 2 m/s 758 mmHg 71%
    13:00 +31°C° 1 mm 2 m/s 757 mmHg 73%
    14:00 +31°C° 1 mm 3 m/s 756 mmHg 75%
    15:00 +31°C° 1 mm 3 m/s 756 mmHg 77%
    16:00 +30°C° 2.2 mm 3 m/s 756 mmHg 83%
    17:00 +28°C° 2.2 mm 4 m/s 756 mmHg 88%
    18:00 +27°C° 2.2 mm 4 m/s 756 mmHg 94%
    19:00 +27°C° 2.7 mm 4 m/s 757 mmHg 95%
    20:00 +26°C° 2.7 mm 4 m/s 757 mmHg 96%
    21:00 +26°C° 2.7 mm 5 m/s 758 mmHg 96%
    22:00 +25°C° 2.1 mm 4 m/s 758 mmHg 97%
    23:00 +25°C° 2.1 mm 4 m/s 758 mmHg 97%

    29 Februarie, Sâmbătă

    Timp Temperatura Precipitaţii Vânt Presiune Umiditate
    00:00 +25°C° 2.1 mm 3 m/s 758 mmHg 97%
    01:00 +25°C° 1.2 mm 3 m/s 758 mmHg 97%
    02:00 +25°C° 1.2 mm 2 m/s 758 mmHg 97%
    03:00 +24°C° 1.2 mm 1 m/s 757 mmHg 97%
    04:00 +24°C° 0.4 mm 1 m/s 757 mmHg 97%
    05:00 +24°C° 0.4 mm 1 m/s 757 mmHg 97%
    06:00 +24°C° 0.4 mm 1 m/s 758 mmHg 97%
    07:00 +25°C° 0 mm 1 m/s 758 mmHg 96%
    08:00 +26°C° 0 mm 1 m/s 759 mmHg 95%
    09:00 +26°C° 0 mm 1 m/s 759 mmHg 94%
    10:00 +28°C° 0 mm 1 m/s 759 mmHg 86%
    11:00 +29°C° 0 mm 1 m/s 759 mmHg 78%
    12:00 +31°C° 0 mm 1 m/s 758 mmHg 70%
    13:00 +31°C° 0.1 mm 1 m/s 758 mmHg 71%
    14:00 +31°C° 0.1 mm 1 m/s 757 mmHg 71%
    15:00 +31°C° 0.1 mm 2 m/s 756 mmHg 72%
    16:00 +30°C° 0.4 mm 2 m/s 756 mmHg 78%
    17:00 +29°C° 0.4 mm 2 m/s 756 mmHg 84%
    18:00 +28°C° 0.4 mm 3 m/s 756 mmHg 90%
    19:00 +28°C° 0.5 mm 2 m/s 756 mmHg 91%
    20:00 +27°C° 0.5 mm 2 m/s 757 mmHg 93%
    21:00 +27°C° 0.5 mm 2 m/s 758 mmHg 95%
    22:00 +26°C° 0.3 mm 2 m/s 758 mmHg 95%
    23:00 +26°C° 0.3 mm 1 m/s 758 mmHg 96%

    1 Martie, Duminică

    Timp Temperatura Precipitaţii Vânt Presiune Umiditate
    00:00 +26°C° 0.3 mm 1 m/s 758 mmHg 96%
    01:00 +26°C° 0.1 mm 1 m/s 758 mmHg 96%
    02:00 +26°C° 0.1 mm 1 m/s 757 mmHg 96%
    03:00 +26°C° 0.1 mm 1 m/s 757 mmHg 97%
    04:00 +26°C° 0.3 mm 1 m/s 757 mmHg 97%
    05:00 +25°C° 0.3 mm 1 m/s 757 mmHg 97%
    06:00 +25°C° 0.3 mm 1 m/s 757 mmHg 97%
    07:00 +27°C° 0.1 mm 1 m/s 758 mmHg 94%
    08:00 +28°C° 0.1 mm 1 m/s 758 mmHg 90%
    09:00 +29°C° 0.1 mm 1 m/s 759 mmHg 87%
    10:00 +30°C° 0.4 mm 1 m/s 759 mmHg 85%
    11:00 +30°C° 0.4 mm 2 m/s 758 mmHg 82%
    12:00 +31°C° 0.4 mm 2 m/s 758 mmHg 80%
    13:00 +31°C° 0.8 mm 2 m/s 757 mmHg 81%
    14:00 +31°C° 0.8 mm 3 m/s 756 mmHg 82%
    15:00 +31°C° 0.8 mm 3 m/s 756 mmHg 83%
    16:00 +30°C° 0.5 mm 3 m/s 756 mmHg 85%
    17:00 +29°C° 0.5 mm 3 m/s 756 mmHg 88%
    18:00 +28°C° 0.5 mm 3 m/s 756 mmHg 90%
    19:00 +28°C° 0.4 mm 3 m/s 756 mmHg 92%
    20:00 +27°C° 0.4 mm 3 m/s 757 mmHg 93%
    21:00 +27°C° 0.4 mm 3 m/s 757 mmHg 94%
    22:00 +27°C° 0.1 mm 2 m/s 757 mmHg 95%
    23:00 +26°C° 0.1 mm 2 m/s 757 mmHg 95%
    Arată mai mult